RH
99 92 86 73 48 35 39 42 51 62 64 65 67 68 68 68 63 58 58 64 68 72 80 82 76 79 74 75 73 73 71 71 70 69 64 62 67 70 72 73 85 86 93
98 96 85 70 45 35 43 42 53 60 63 68 68 64 66 68 68 66 64 64 65 69 73 83 90 85 81 80 76 73 74 76 76 76 74 72 68 65 68 72 73 75 81
93 100 82 68 44 38 45 45 50 61 68 69 67 63 66 68 69 67 68 69 66 69 71 78 94 94 96 97 98 89 80 75 78 78 78 79 81 79 75 71 69 66 68
88 96 81 68 45 42 50 54 60 72 69 63 64 64 65 68 68 67 67 68 68 69 71 71 77 86 87 88 92 91 91 91 86 88 84 84 83 87 87 85 84 76 74
91 80 82 70 47 45 56 69 74 72 68 63 62 61 57 57 58 60 62 63 66 68 71 73 76 79 81 83 85 82 81 82 86 86 85 83 82 89 94 98 99 97 95
98 84 85 77 54 54 62 72 72 75 67 63 61 59 61 62 62 68 67 63 63 66 70 74 74 72 75 79 83 85 86 91 90 89 82 84 83 81 88 86 92 98 98
98 90 87 81 66 60 61 66 71 72 67 66 75 78 76 74 72 71 70 68 67 67 72 72 72 74 78 83 86 90 88 90 93 95 86 90 84 87 95 94 94 81 81
100 97 90 85 78 70 71 66 74 71 66 71 78 78 89 82 80 78 76 76 76 75 75 78 82 84 86 90 93 92 91 93 96 95 94 90 90 88 89 95 95 96 89
100 98 94 84 76 76 74 71 74 64 68 78 76 73 96 94 90 87 86 85 84 83 82 84 85 85 87 88 89 92 89 90 94 91 97 96 90 91 91 93 85 96 90
99 100 94 87 77 78 80 75 73 62 62 84 81 70 74 78 93 98 93 87 82 80 81 84 84 84 88 92 92 83 87 88 85 85 99 98 92 96 95 94 96 92 79
99 94 93 84 79 75 76 77 72 63 60 73 81 84 84 84 78 88 98 95 88 85 84 86 85 85 83 88 86 83 82 85 84 85 93 99 98 93 96 94 91 90 79
100 100 95 91 90 76 76 76 66 60 60 66 77 78 75 80 86 85 94 95 88 90 92 91 88 88 88 90 89 85 81 79 82 86 97 99 98 90 96 87 88 89 79
98 100 100 97 95 77 72 74 66 61 60 75 77 78 74 68 66 73 78 90 90 91 97 94 92 88 88 88 83 78 71 69 72 94 100 99 93 92 98 92 94 90 82
98 100 100 100 94 78 71 72 67 63 60 70 78 79 74 76 74 66 74 82 95 97 98 95 99 97 91 86 82 81 79 70 82 94 86 85 90 90 96 94 95 90 83
95 98 93 98 91 78 72 72 71 64 66 78 83 81 78 82 78 75 76 73 74 98 98 96 97 97 94 91 90 83 75 83 92 99 100 98 92 93 100 100 94 88 83
100 100 97 98 90 76 70 70 70 70 78 85 88 87 92 88 82 80 80 77 73 75 86 84 97 93 95 94 87 80 72 83 96 97 99 100 99 100 92 99 94 90 84
97 98 98 97 93 76 71 71 72 77 84 90 92 91 90 86 86 88 82 85 81 84 84 83 94 95 95 90 85 80 76 84 85 91 96 98 96 92 96 97 95 88 82
95 97 95 93 80 80 74 78 82 87 91 95 93 88 89 94 93 88 86 84 88 89 82 83 92 98 94 88 84 81 80 87 87 89 91 93 95 92 93 100 94 88 80
96 92 96 89 86 85 87 85 87 93 94 91 90 93 97 99 98 92 90 88 85 76 67 75 88 96 90 90 88 86 79 74 73 87 92 99 98 96 99 99 96 90 82
98 92 74 69 82 88 91 95 95 95 100 96 87 87 100 96 94 89 94 87 77 79 80 82 85 90 90 90 91 89 79 80 75 82 87 93 98 96 100 100 99 92 84
98 100 100 98 100 100 100 99 100 100 99 89 87 90 83 87 93 93 87 83 81 87 87 87 89 93 93 96 93 84 87 89 84 81 84 89 96 99 100 100 100 96 89
100 100 100 100 99 97 100 100 98 96 91 84 95 99 100 98 96 95 88 87 73 72 82 86 87 90 87 83 84 86 89 95 96 92 94 91 93 97 100 100 100 99 94
100 100 100 100 100 100 99 100 100 100 100 98 100 99 100 100 100 100 99 97 93 86 70 68 79 79 78 75 79 88 91 94 95 97 99 95 93 92 95 100 99 99 97
93 96 99 100 100 100 100 100 98 100 100 100 100 100 100 100 100 100 100 99 94 89 85 81 78 75 75 75 81 82 88 94 98 99 99 100 95 94 92 94 99 100 99
91 91 94 95 93 95 93 96 97 98 99 100 100 100 100 100 99 100 96 92 88 82 80 80 78 80 82 86 89 91 96 100 100 99 97 100 98 94 92 91 90 96 100
99 98 96 94 98 99 97 91 92 94 94 98 98 98 95 95 96 90 83 76 80 81 87 91 84 84 86 87 87 86 96 100 99 100 98 99 98 95 88 84 85 87 92
Wind_Speed
34 34 29 27 26 25 26 26 26 25 20 16 13 12 11 9 8 7 6 6 5 4 4 3 3 2 2 1 0 1 1 1 2 3 3 4 4 5 6 7 8 10 11
36 36 34 31 28 28 27 27 29 25 20 15 11 13 14 11 8 7 6 5 5 4 4 3 3 3 2 2 3 3 3 3 3 3 4 4 5 5 6 6 7 8 8
37 33 36 34 32 31 29 27 26 22 17 14 12 14 15 13 10 8 7 6 5 5 4 4 5 6 5 5 7 7 5 4 4 4 5 6 6 7 6 6 5 6 7
39 37 37 36 34 32 31 29 27 21 16 14 16 15 14 15 12 10 9 8 7 6 5 5 6 8 9 9 9 10 10 11 10 9 8 8 8 8 8 8 8 7 6
41 39 39 38 37 36 34 32 27 23 19 18 16 14 13 13 12 11 11 10 9 8 8 7 7 8 9 9 10 10 8 7 6 6 7 9 10 10 10 10 8 9 7
40 41 40 39 39 38 37 33 29 23 21 18 16 13 12 11 12 10 10 11 10 11 11 9 8 8 9 9 9 8 7 3 3 5 5 6 7 7 8 8 9 10 10
42 42 41 41 41 41 40 36 30 25 23 20 17 11 9 9 10 10 9 9 9 9 9 8 7 6 6 7 7 5 5 4 4 3 7 7 6 5 7 7 8 7 9
42 41 40 42 43 40 38 38 32 28 24 24 13 11 2 3 8 9 10 10 8 7 6 7 6 6 5 5 5 6 5 4 4 4 5 5 5 6 7 6 7 6 7
37 43 39 40 42 37 41 41 35 33 24 28 19 9 2 4 4 7 10 9 9 8 7 7 7 6 6 7 6 4 4 3 3 2 3 4 6 7 8 5 7 3 6
33 39 36 39 42 40 39 42 39 37 32 26 20 20 6 6 3 2 6 8 8 7 6 5 5 4 3 4 4 3 3 3 4 5 5 6 6 8 5 3 1 4 6
43 45 38 40 38 43 43 41 42 39 36 30 27 20 10 8 6 3 3 6 8 7 8 6 5 4 4 4 4 4 5 5 7 9 9 9 8 7 6 5 5 4 6
41 43 47 43 43 43 44 42 43 39 36 33 34 26 21 9 8 5 2 3 6 7 7 7 6 6 5 5 6 5 5 7 8 8 7 8 8 7 6 6 7 6 8
40 40 46 48 43 44 46 44 43 39 37 34 32 30 28 23 12 14 8 4 4 5 6 8 7 7 6 5 6 5 5 7 7 5 6 4 4 7 9 8 8 7 9
42 43 47 47 43 46 48 46 43 38 37 34 32 32 29 27 21 19 13 11 2 4 7 6 8 9 9 8 7 7 9 10 6 4 5 4 5 7 8 8 8 9 11
41 42 50 46 45 48 47 45 41 38 36 32 32 31 30 24 21 18 18 18 11 4 5 9 9 13 11 10 8 10 12 11 8 5 5 5 6 8 7 8 10 10 12
33 39 47 42 41 46 44 41 37 36 34 33 32 31 26 25 23 21 18 20 19 14 3 14 16 14 15 11 10 10 9 7 6 7 9 9 9 8 9 8 9 10 11
33 33 37 38 40 44 42 38 37 36 34 34 32 30 26 26 26 26 21 23 21 18 6 11 15 16 16 15 13 11 10 11 8 8 10 10 10 11 9 9 9 8 8
36 37 37 37 38 39 38 38 37 37 37 35 34 30 29 28 27 27 28 26 24 18 12 12 18 18 17 15 13 12 11 12 11 10 10 11 11 10 9 7 7 7 8
34 36 34 34 35 36 36 36 37 39 37 37 35 32 35 32 32 31 29 29 27 24 21 15 16 15 15 14 13 12 11 8 8 10 11 10 10 9 8 8 7 7 6
27 28 30 33 34 34 35 36 39 37 34 36 34 35 38 34 37 35 34 32 27 25 21 18 15 15 15 13 13 12 9 7 7 6 8 9 10 11 10 10 8 6 5
19 25 27 27 27 28 30 31 32 32 33 34 35 40 39 40 42 38 39 35 27 24 20 19 14 12 13 12 13 9 7 6 7 5 5 7 8 9 11 11 9 7 5
14 20 12 11 13 16 17 22 27 30 34 37 39 42 41 40 41 40 39 32 26 26 26 25 23 14 17 15 13 12 9 3 3 5 2 3 5 8 11 12 10 8 7
11 8 9 7 8 12 21 21 22 27 33 39 41 43 41 42 41 38 36 28 24 25 27 27 26 22 17 18 16 15 14 10 6 6 7 7 5 8 8 11 12 10 10
15 13 12 10 7 5 3 4 6 8 13 20 27 31 33 34 31 30 24 20 22 22 21 21 21 18 17 14 15 13 12 10 10 10 8 4 5 7 7 8 12 12 11
15 14 11 9 7 4 4 4 3 1 2 5 8 12 17 16 16 18 16 17 19 18 17 17 15 14 13 13 12 12 11 9 6 5 8 6 5 5 7 9 10 12 13
15 13 12 10 8 5 4 5 2 3 2 1 2 3 5 9 13 16 20 21 19 20 21 18 14 13 13 13 13 14 13 15 7 4 9 8 4 2 3 3 6 9 10
Wind_Direction
181 182 187 186 185 180 178 174 174 173 176 173 175 187 187 176 165 167 171 175 174 173 168 173 147 140 126 128 169 336 355 5 26 24 18 14 6 12 10 14 23 26 28
185 186 188 189 187 184 182 178 175 176 178 181 190 196 195 192 183 179 183 188 196 203 202 210 223 236 246 259 274 289 305 315 340 340 342 343 346 349 338 352 7 11 16
191 187 190 189 189 185 184 182 180 181 188 196 199 199 198 201 200 203 204 209 209 218 231 233 246 260 264 265 264 271 278 292 306 315 322 323 323 320 320 323 332 347 359
201 196 195 191 190 187 185 183 184 189 191 190 183 183 193 201 207 216 220 225 229 231 236 246 253 269 277 283 287 286 286 282 286 295 308 311 310 310 310 305 309 317 329
204 205 200 193 190 189 189 188 191 194 189 188 189 189 191 201 211 218 230 233 239 245 245 253 259 270 276 286 299 308 317 314 308 299 303 304 308 303 299 297 296 295 301
201 203 201 198 192 191 192 194 194 195 194 189 188 188 190 198 204 217 231 233 237 244 247 256 264 273 275 277 291 311 333 340 346 334 343 332 332 330 334 322 294 280 277
202 199 199 201 197 195 196 197 197 197 191 185 169 179 190 205 210 214 217 225 233 238 239 248 257 275 281 270 283 306 315 300 305 316 314 308 326 344 346 348 349 330 309
205 200 197 200 199 197 199 199 198 189 194 184 170 148 177 235 216 211 209 215 218 217 223 244 259 266 264 262 271 289 293 289 292 325 336 335 337 334 324 333 328 319 326
202 201 198 201 201 202 199 199 199 195 185 188 190 165 140 215 157 207 208 216 225 227 236 245 248 255 257 266 273 276 284 286 270 300 350 333 323 323 321 314 323 0 0
204 198 198 199 203 206 202 202 203 202 193 186 190 200 207 154 168 176 212 213 213 208 235 228 221 216 224 236 235 253 261 263 269 283 308 320 309 308 314 314 307 341 350
200 202 198 203 207 206 207 210 205 205 203 198 196 197 195 183 162 140 174 197 212 220 221 225 241 226 213 225 224 241 257 271 275 283 296 302 299 289 271 268 298 320 332
199 207 208 210 212 212 209 211 208 208 207 209 205 205 200 174 186 164 129 174 177 186 206 211 222 236 227 229 240 256 267 268 275 282 305 306 293 276 242 264 284 294 319
195 198 201 204 208 207 209 212 211 210 210 208 212 211 216 213 207 199 167 150 148 178 190 214 219 215 214 213 231 227 255 272 278 294 5 324 292 240 227 253 269 287 305
187 189 194 200 204 208 209 211 213 214 214 215 220 218 219 220 219 210 186 159 119 194 184 198 207 206 208 211 220 253 275 281 280 276 253 312 265 249 251 256 280 297 303
190 191 198 202 201 206 207 209 212 213 215 215 218 218 219 214 213 213 209 200 173 189 207 211 198 206 206 214 241 278 288 279 271 274 268 270 265 269 266 276 280 296 309
176 185 193 197 197 201 204 209 211 213 212 214 216 218 208 210 214 213 211 215 216 208 140 201 209 201 206 224 248 270 286 277 265 274 282 270 266 275 273 288 296 303 310
183 186 192 194 195 198 204 208 211 211 211 214 215 212 212 213 211 208 207 216 218 214 141 202 216 207 209 225 248 269 283 266 262 256 262 273 273 273 282 288 300 300 302
196 200 199 196 200 203 206 207 209 211 211 211 211 208 216 214 212 207 202 210 220 212 182 201 211 207 214 230 246 265 267 264 264 259 257 266 269 274 277 278 279 295 317
188 194 195 195 200 206 209 211 213 215 215 214 212 211 214 212 211 209 215 208 211 205 188 211 207 210 217 230 242 254 260 278 290 262 262 260 259 261 259 263 267 285 304
192 203 214 215 208 211 214 215 216 219 214 213 210 220 219 212 213 214 219 216 205 205 198 191 204 206 211 225 235 246 259 276 298 286 281 266 254 251 231 249 255 268 283
196 197 204 212 213 218 217 219 222 218 215 216 215 227 221 215 213 219 216 212 205 202 197 193 205 207 201 206 217 228 244 281 288 273 260 256 247 244 229 234 246 254 252
141 182 197 205 217 228 236 233 231 233 230 228 222 224 221 218 218 222 218 216 204 210 209 206 207 212 217 217 213 213 225 239 246 225 283 278 278 246 240 233 238 249 247
95 93 113 160 203 232 237 229 225 227 226 222 220 222 222 223 224 218 211 204 215 215 226 220 218 221 223 219 212 208 212 214 219 264 309 290 264 273 252 240 239 239 238
89 86 82 95 105 74 357 308 294 288 253 246 230 225 222 221 217 212 200 185 198 206 214 225 230 232 227 221 221 223 218 222 247 258 251 251 276 283 280 256 240 237 240
91 89 88 100 112 91 42 37 48 34 312 239 236 230 222 205 200 204 205 198 205 207 213 218 215 222 218 212 215 219 215 207 233 240 220 235 265 299 294 276 256 236 234
79 77 78 76 77 79 81 107 118 142 143 217 194 206 212 212 215 212 208 201 208 212 212 206 195 197 203 205 215 226 225 210 200 215 221 213 246 269 326 330 284 259 240